User: anonymous   Login
Location: Hickory_Viewmont
(35.7830°N, 81.3170°W)
Time: 11:59:58
(UTC-04:00)
Language:

Okean-O - Orbit

View from above orbital plane
View from above orbital plane
View from above satellite
View from above satellite

Ground track
Ground track

The orbit data is extracted from the following two-line orbital elements,

1 25860U 99039A   15148.53370812  .00000345  00000-0  57605-4 0  9998
2 25860 098.0924 116.5509 0001806 074.4891 040.3472 14.76034254853080
Epoch (UTC): 28 May 2015 12:48:32
Eccentricity: 0.0001806
inclination: 98.0924°
perigee height: 640 km
apogee height: 643 km
right ascension of ascending node: 116.5509°
argument of perigee: 74.4891°
revolutions per day: 14.76034254
mean anomaly at epoch: 40.3472°
orbit number at epoch: 85308

The dashed part of the orbit path shows where the satellite is in the earth's shadow,  

DLR